This is the latest recevied weather packets stored in our database for station/object G4ZMG. If no packets are shown the sender has not sent any weather packets the latest 10 day(s).
| Time | Temp. | Humidity | Pressure | Rain* | Wind** | Luminosity | Snow |
|---|---|---|---|---|---|---|---|
| 1777767628 | 10.56° C | 94% | 1008.5 hPa | 0 mm | - | 0 W/m² | - |
| 1777767009 | 10.56° C | 94% | 1008.6 hPa | 0 mm | - | 0 W/m² | - |
| 1777766410 | 10.56° C | 94% | 1008.6 hPa | 0 mm | - | 0 W/m² | - |
| 1777765808 | 10.56° C | 95% | 1008.6 hPa | 0 mm | - | 0 W/m² | - |
| 1777765204 | 10.56° C | 94% | 1008.6 hPa | 0 mm | - | 0 W/m² | - |
| 1777764647 | 10.56° C | 94% | 1008.5 hPa | 0 mm | - | 0 W/m² | - |
| 1777764045 | 10.56° C | 94% | 1008.9 hPa | 0 mm | - | 0 W/m² | - |
| 1777763439 | 10.56° C | 94% | 1008.6 hPa | 0 mm | - | 0 W/m² | - |
| 1777762841 | 10.56° C | 94% | 1008.8 hPa | 0 mm | - | 0 W/m² | - |
| 1777762236 | 10.56° C | 94% | 1008.8 hPa | 0 mm | - | 0 W/m² | - |
| 1777761605 | 10.56° C | 94% | 1008.8 hPa | 0 mm | - | 0 W/m² | - |
| 1777761045 | 10.56° C | 94% | 1008.7 hPa | 0 mm | - | 0 W/m² | - |
| 1777760436 | 10.56° C | 94% | 1008.8 hPa | 0 mm | - | 0 W/m² | - |
| 1777759829 | 10.56° C | 94% | 1008.9 hPa | 0 mm | - | 0 W/m² | - |
| 1777759210 | 10.56° C | 94% | 1009 hPa | 0.25 mm | - | 0 W/m² | - |
| 1777758603 | 10.56° C | 94% | 1008.9 hPa | 0.25 mm | - | 0 W/m² | - |
| 1777758043 | 10.56° C | 94% | 1008.9 hPa | 0.51 mm | - | 0 W/m² | - |
| 1777757438 | 10.56° C | 94% | 1009.1 hPa | 1.27 mm | - | 0 W/m² | - |
| 1777756830 | 10.56° C | 94% | 1009.2 hPa | 1.52 mm | - | 0 W/m² | - |
| 1777756208 | 10.56° C | 94% | 1009.4 hPa | 2.29 mm | - | 0 W/m² | - |
| 1777755633 | 10° C | 94% | 1009.4 hPa | 3.05 mm | - | 0 W/m² | - |
| 1777755029 | 10° C | 94% | 1009.5 hPa | 4.32 mm | - | 0 W/m² | - |
| 1777754410 | 10° C | 93% | 1009.6 hPa | 4.83 mm | - | 0 W/m² | - |
| 1777753806 | 10° C | 93% | 1009.8 hPa | 5.33 mm | - | 0 W/m² | - |
| 1777753248 | 10.56° C | 93% | 1009.9 hPa | 5.59 mm | - | 0 W/m² | - |
* Rain latest hour (hover to see other rain measurements)
** Current wind speed in m/s (hover to see current wind gust speed)